Tracking 30995 objects as of 7-Jul-2025
HD Live streaming from Space Station
objects crossing your sky now

ARIANE 42P+3 R/B

Track ARIANE 42P+3 R/B now!
10-day predictions


NORAD ID: 23847
Int'l Code: 1996-022B
Perigee: 331.6 km
Apogee: 26,181.0 km
Inclination: 6.6 °
Period: 456.1 minutes
Semi major axis: 19627 km
RCS: 21.539 m2 (large)
Launch date: April 20, 1996
Source: France (FR)
Launch site: FRENCH GUIANA (FRGUI)

Note: This is a ROCKET BODY
Your satellite tracking list
Your tracking list is empty




NASA's NSSDC Master Catalog

Two Line Element Set (TLE):
1 23847U 96022B   25187.28480312  .00002398  00000-0  12970-2 0  9997
2 23847   6.6137 213.2278 6585046 334.5110   4.0923  3.15726473295298
Source of the keplerian elements: AFSPC